2021-035C

Last updated on Tue Jan 03 2023 00:02:06 GMT+0000 (Coordinated Universal Time)

1 54816U 21035C 23002.59527785 .00114773 00000+0 11995-2 0 9999 2 54816 41.4777 84.8262 0006597 296.9257 63.0907 15.63297450 2305

Satellite not in orbit

2021-035C